| time (UTC) | temp F | wind direction | speed MPH | gust MPH | rain 1hr in | rain 24hr in | rain mn in | humidity % | barometer mb |
| 20260503021147 | 0 | 333 | 0.0 | 3.0 | 0.00 | 0.06 | 0.00 | 86 | 1010.5 |
| 20260503020044 | 0 | 348 | 1.0 | 4.0 | 0.00 | 0.06 | 0.00 | 86 | 1010.4 |
| 20260503015041 | 0 | 290 | 1.0 | 4.0 | 0.00 | 0.06 | 0.00 | 86 | 1010.5 |
| 20260503014140 | 0 | 333 | 1.0 | 3.0 | 0.00 | 0.06 | 0.00 | 86 | 1010.5 |
| 20260503013209 | 0 | 352 | 1.0 | 4.0 | 0.00 | 0.06 | 0.00 | 86 | 1010.5 |
| 20260503012035 | 0 | 3 | 1.0 | 3.0 | 0.00 | 0.06 | 0.00 | 86 | 1010.6 |
| 20260503011035 | 0 | 350 | 1.0 | 4.0 | 0.00 | 0.06 | 0.00 | 86 | 1010.7 |
| 20260503010034 | 0 | 354 | 1.0 | 4.0 | 0.00 | 0.06 | 0.00 | 86 | 1010.7 |
| 20260503005133 | 0 | 357 | 1.0 | 4.0 | 0.00 | 0.06 | 0.00 | 86 | 1010.7 |
| 20260503004029 | 0 | 357 | 1.0 | 5.0 | 0.00 | 0.06 | 0.00 | 86 | 1010.8 |
| 20260503003055 | 0 | 341 | 1.0 | 4.0 | 0.00 | 0.06 | 0.00 | 86 | 1010.7 |
| 20260503002053 | 0 | 345 | 1.0 | 3.0 | 0.00 | 0.06 | 0.00 | 86 | 1010.7 |
| 20260503001052 | 0 | 346 | 1.0 | 3.0 | 0.00 | 0.06 | 0.00 | 86 | 1010.8 |
| 20260503000051 | 0 | 331 | 0.0 | 3.0 | 0.00 | 0.06 | 0.00 | 86 | 1010.9 |
| 20260502235143 | 0 | 342 | 1.0 | 3.0 | 0.00 | 0.06 | 0.00 | 86 | 1011.0 |
| 20260502234312 | 0 | 8 | 1.0 | 3.0 | 0.00 | 0.06 | 0.00 | 86 | 1011.0 |
| 20260502233039 | 0 | 342 | 1.0 | 3.0 | 0.00 | 0.06 | 0.00 | 86 | 1011.0 |
| 20260502232038 | 0 | 3 | 2.0 | 4.0 | 0.00 | 0.06 | 0.00 | 86 | 1011.0 |
| 20260502231032 | 0 | 23 | 0.0 | 3.0 | 0.00 | 0.06 | 0.00 | 86 | 1011.0 |
| 20260502230029 | 0 | 6 | 1.0 | 7.0 | 0.00 | 0.06 | 0.00 | 86 | 1011.0 |
| 20260502225028 | 0 | 348 | 1.0 | 5.0 | 0.00 | 0.06 | 0.00 | 86 | 1011.0 |
| 20260502224024 | 0 | 344 | 2.0 | 4.0 | 0.00 | 0.06 | 0.00 | 86 | 1010.9 |
| 20260502223024 | 0 | 351 | 2.0 | 8.0 | 0.00 | 0.06 | 0.00 | 86 | 1010.9 |
| 20260502222050 | 0 | 352 | 2.0 | 5.0 | 0.00 | 0.06 | 0.00 | 86 | 1010.9 |
| 20260502221020 | 0 | 330 | 1.0 | 5.0 | 0.00 | 0.06 | 0.00 | 86 | 1011.0 |
| 20260502220049 | 0 | 354 | 2.0 | 4.0 | 0.00 | 0.06 | 0.00 | 86 | 1011.1 |
| 20260502215318 | 0 | 328 | 2.0 | 7.0 | 0.00 | 0.06 | 0.06 | 86 | 1011.2 |
| 20260502214047 | 0 | 345 | 2.0 | 5.0 | 0.00 | 0.06 | 0.06 | 86 | 1011.2 |
| 20260502213046 | 0 | 349 | 1.0 | 4.0 | 0.00 | 0.06 | 0.06 | 86 | 1011.1 |
| 20260502212045 | 0 | 12 | 1.0 | 5.0 | 0.00 | 0.06 | 0.06 | 86 | 1011.2 |
| 20260502211044 | 0 | 22 | 2.0 | 4.0 | 0.00 | 0.06 | 0.06 | 86 | 1011.1 |
| 20260502210044 | 0 | 338 | 2.0 | 5.0 | 0.00 | 0.06 | 0.06 | 86 | 1011.0 |
| 20260502205021 | 0 | 9 | 2.0 | 7.0 | 0.00 | 0.06 | 0.06 | 86 | 1011.1 |
| 20260502204121 | 0 | 354 | 2.0 | 5.0 | 0.00 | 0.06 | 0.06 | 86 | 1011.1 |
| 20260502203020 | 0 | 11 | 2.0 | 5.0 | 0.00 | 0.06 | 0.06 | 86 | 1011.0 |
| 20260502202049 | 0 | 3 | 2.0 | 5.0 | 0.00 | 0.06 | 0.06 | 86 | 1010.9 |
| 20260502201048 | 0 | 348 | 2.0 | 8.0 | 0.00 | 0.06 | 0.06 | 86 | 1010.9 |
| 20260502200047 | 0 | 340 | 2.0 | 5.0 | 0.00 | 0.06 | 0.06 | 86 | 1010.9 |
| 20260502195046 | 0 | 335 | 1.0 | 5.0 | 0.00 | 0.06 | 0.06 | 86 | 1010.7 |
| 20260502194045 | 0 | 340 | 1.0 | 4.0 | 0.00 | 0.06 | 0.06 | 86 | 1010.7 |
| 20260502193044 | 0 | 336 | 2.0 | 8.0 | 0.00 | 0.06 | 0.06 | 86 | 1010.7 |
| 20260502192041 | 0 | 337 | 2.0 | 8.0 | 0.00 | 0.06 | 0.06 | 86 | 1010.7 |
| 20260502191037 | 0 | 326 | 2.0 | 5.0 | 0.00 | 0.06 | 0.06 | 86 | 1010.7 |
| 20260502190037 | 0 | 306 | 1.0 | 3.0 | 0.00 | 0.06 | 0.06 | 86 | 1010.6 |
| 20260502185036 | 0 | 338 | 1.0 | 4.0 | 0.00 | 0.06 | 0.06 | 86 | 1010.6 |
| 20260502184135 | 0 | 331 | 1.0 | 5.0 | 0.00 | 0.06 | 0.06 | 86 | 1010.6 |
| 20260502182033 | 0 | 338 | 2.0 | 5.0 | 0.00 | 0.06 | 0.06 | 86 | 1010.7 |
| 20260502181228 | 0 | 333 | 1.0 | 5.0 | 0.00 | 0.06 | 0.06 | 86 | 1010.7 |
| 20260502164047 | 0 | 284 | 3.0 | 5.0 | 0.00 | 0.06 | 0.06 | 86 | 1010.9 |
| 20260502163016 | 0 | 298 | 2.0 | 4.0 | 0.00 | 0.06 | 0.06 | 86 | 1011.1 |
| 20260502162045 | 0 | 277 | 4.0 | 5.0 | 0.00 | 0.06 | 0.06 | 86 | 1011.1 |
| 20260502161042 | 0 | 274 | 2.0 | 4.0 | 0.00 | 0.06 | 0.06 | 86 | 1011.2 |
| 20260502152037 | 0 | 284 | 2.0 | 4.0 | 0.00 | 0.06 | 0.06 | 86 | 1011.5 |
| 20260502151234 | 0 | 276 | 3.0 | 5.0 | 0.00 | 0.06 | 0.06 | 86 | 1011.6 |
| 20260502123046 | 0 | 161 | 1.0 | 4.0 | 0.00 | 0.06 | 0.06 | 86 | 1012.0 |
| 20260502122044 | 0 | 213 | 1.0 | 4.0 | 0.00 | 0.06 | 0.06 | 86 | 1012.1 |
| 20260502121043 | 0 | 176 | 1.0 | 4.0 | 0.00 | 0.06 | 0.06 | 86 | 1012.1 |
| 20260502115142 | 0 | 151 | 2.0 | 4.0 | 0.00 | 0.06 | 0.06 | 86 | 1012.1 |
| 20260502114141 | 0 | 122 | 2.0 | 5.0 | 0.00 | 0.06 | 0.06 | 86 | 1012.2 |
| 20260502113040 | 0 | 149 | 4.0 | 7.0 | 0.00 | 0.06 | 0.06 | 86 | 1012.1 |
| 20260502112036 | 0 | 132 | 3.0 | 8.0 | 0.00 | 0.06 | 0.06 | 86 | 1012.2 |
| 20260502111035 | 0 | 155 | 2.0 | 4.0 | 0.00 | 0.06 | 0.06 | 86 | 1012.2 |
| 20260502110035 | 0 | 137 | 3.0 | 7.0 | 0.00 | 0.06 | 0.06 | 86 | 1012.3 |
| 20260502105133 | 0 | 151 | 3.0 | 8.0 | 0.00 | 0.06 | 0.06 | 86 | 1012.3 |
| 20260502104029 | 0 | 169 | 2.0 | 7.0 | 0.00 | 0.06 | 0.06 | 86 | 1012.5 |
| 20260502103025 | 0 | 158 | 1.0 | 5.0 | 0.00 | 0.06 | 0.06 | 86 | 1012.5 |
| 20260502102050 | 0 | 123 | 1.0 | 4.0 | 0.00 | 0.06 | 0.06 | 86 | 1012.3 |
| 20260502101249 | 0 | 139 | 2.0 | 5.0 | 0.00 | 0.06 | 0.06 | 86 | 1012.3 |
| 20260502091044 | 0 | 206 | 1.0 | 3.0 | 0.00 | 0.06 | 0.06 | 86 | 1012.3 |
| 20260502071056 | 0 | 135 | 1.0 | 1.0 | 0.00 | 0.04 | 0.04 | 86 | 1012.1 |
| 20260502070052 | 0 | 136 | 2.0 | 4.0 | 0.00 | 0.04 | 0.04 | 86 | 1012.0 |
| 20260502065050 | 0 | 88 | 1.0 | 3.0 | 0.00 | 0.04 | 0.04 | 86 | 1011.9 |
| 20260502064119 | 0 | 68 | 0.0 | 3.0 | 0.00 | 0.04 | 0.04 | 86 | 1011.9 |
| 20260502063117 | 0 | 68 | 0.0 | 1.0 | 0.00 | 0.04 | 0.04 | 86 | 1012.0 |
| 20260502062046 | 0 | 68 | 1.0 | 1.0 | 0.00 | 0.04 | 0.04 | 86 | 1012.0 |
| 20260502061046 | 0 | 68 | 0.0 | 1.0 | 0.00 | 0.04 | 0.04 | 86 | 1012.3 |
| 20260502060045 | 0 | 0.0 | 0.0 | 0.00 | 0.04 | 0.04 | 86 | 1012.4 | |
| 20260502055044 | 0 | 68 | 0.0 | 1.0 | 0.01 | 0.04 | 0.04 | 86 | 1012.5 |
| 20260502054413 | 0 | 68 | 0.0 | 1.0 | 0.02 | 0.04 | 0.04 | 86 | 1012.7 |
| 20260502053410 | 0 | 0.0 | 1.0 | 0.03 | 0.04 | 0.04 | 86 | 1012.5 | |
| 20260502052209 | 0 | 68 | 1.0 | 3.0 | 0.03 | 0.04 | 0.04 | 86 | 1012.7 |
| 20260502051135 | 0 | 144 | 2.0 | 3.0 | 0.04 | 0.04 | 0.04 | 86 | 1012.8 |
| 20260502050029 | 0 | 149 | 1.0 | 1.0 | 0.04 | 0.05 | 0.04 | 86 | 1012.8 |
| 20260502045128 | 0 | 155 | 2.0 | 4.0 | 0.03 | 0.04 | 0.03 | 86 | 1012.9 |
| 20260502044227 | 0 | 234 | 2.0 | 5.0 | 0.02 | 0.03 | 0.02 | 86 | 1013.1 |
| 20260502043026 | 0 | 157 | 1.0 | 4.0 | 0.01 | 0.02 | 0.01 | 86 | 1013.0 |
| 20260502042025 | 0 | 187 | 2.0 | 5.0 | 0.01 | 0.02 | 0.01 | 86 | 1013.0 |
| 20260502041024 | 0 | 238 | 3.0 | 7.0 | 0.00 | 0.01 | 0.00 | 86 | 1013.2 |
| 20260502040023 | 0 | 221 | 3.0 | 7.0 | 0.00 | 0.01 | 0.00 | 86 | 1013.1 |
| 20260502035022 | 0 | 234 | 3.0 | 7.0 | 0.00 | 0.01 | 0.00 | 86 | 1013.1 |
| 20260502034051 | 0 | 216 | 3.0 | 7.0 | 0.00 | 0.01 | 0.00 | 86 | 1013.1 |
| 20260502033050 | 0 | 228 | 3.0 | 7.0 | 0.00 | 0.01 | 0.00 | 86 | 1013.2 |
| 20260502032019 | 0 | 217 | 2.0 | 5.0 | 0.00 | 0.01 | 0.00 | 86 | 1013.3 |
| 20260502031018 | 0 | 227 | 3.0 | 8.0 | 0.00 | 0.01 | 0.00 | 86 | 1013.2 |
| 20260502030147 | 0 | 198 | 3.0 | 8.0 | 0.00 | 0.01 | 0.00 | 86 | 1013.3 |
| 20260502025047 | 0 | 231 | 3.0 | 8.0 | 0.00 | 0.01 | 0.00 | 86 | 1013.6 |
| 20260502024046 | 0 | 237 | 4.0 | 8.0 | 0.00 | 0.01 | 0.00 | 86 | 1013.7 |
| 20260502023045 | 0 | 245 | 3.0 | 10.0 | 0.00 | 0.01 | 0.00 | 86 | 1013.9 |
| 20260502022044 | 0 | 242 | 3.0 | 8.0 | 0.00 | 0.01 | 0.00 | 86 | 1013.9 |